DW4212 La Cabrera ES current weather conditions

sailwx.info

Wind from 180

Air temperature 18.3° C
Dewpoint 5.5° C

Last reported at 2014-Oct-31 16:49 UTC.
Time now 2014-Oct-31 17:18 UTC

Location: N 40°53' W 003°35'.
View on Google Maps.

See reports from other nearby stations

  
Tides and Currents Weather Stations Pressure Air Temp Water Temp Dewpoint Dewpoint Depression Visibility Wind Speed Wind Dir Waves Ship Positions
date/time (UTC)wind fromknots sea level pressurealtimeterstation pressurevisibilityair tempwater tempwave heightnotes
2014-Oct-31 16:49 180 18.3
2014-Oct-31 16:39 180 18.9
2014-Oct-31 16:29 180 18.9
2014-Oct-31 16:19 180 18.9
2014-Oct-31 16:09 180 18.9
2014-Oct-31 15:59 178 18.9
2014-Oct-31 15:39 193 0 gusting 5 20.0
2014-Oct-31 15:29 203 0 gusting 3 20.0
2014-Oct-31 15:19 178 20.0
2014-Oct-31 15:09 198 0 gusting 5 20.6
2014-Oct-31 14:59 259 0 gusting 4 20.6
2014-Oct-31 14:49 196 20.6
2014-Oct-31 14:39 173 0 gusting 6 20.6
2014-Oct-31 14:19 186 0 gusting 6 20.0
2014-Oct-31 14:09 162 0 gusting 2 20.6
2014-Oct-31 13:59 160 0 gusting 6 20.6
2014-Oct-31 13:49 195 1 gusting 6 20.6
2014-Oct-31 13:39 184 1 gusting 6 20.6
2014-Oct-31 13:29 189 1 gusting 4 20.6
2014-Oct-31 13:19 205 0 gusting 6 20.6
2014-Oct-31 13:10 190 3 gusting 8 20.6
2014-Oct-31 12:59 182 1 gusting 6 20.6
2014-Oct-31 12:49 177 1 gusting 4 20.0
2014-Oct-31 12:39 194 0 gusting 6 20.0
2014-Oct-31 12:29 194 0 gusting 6 20.0
2014-Oct-31 12:19 182 0 gusting 5 20.6
2014-Oct-31 12:09 202 0 gusting 5 20.6
2014-Oct-31 11:59 196 0 gusting 5 20.6
2014-Oct-31 11:49 248 0 gusting 5 20.6
2014-Oct-31 11:39 188 1 gusting 4 20.0
2014-Oct-31 11:29 192 20.0
2014-Oct-31 11:19 195 19.4
2014-Oct-31 11:09 194 18.9
2014-Oct-31 10:59 182 18.9
2014-Oct-31 10:49 182 18.9
2014-Oct-31 10:39 138 18.3
2014-Oct-31 10:29 193 0 gusting 3 18.3
2014-Oct-31 10:19 101 17.8
2014-Oct-31 10:09 183 17.8
2014-Oct-31 09:59 091 17.2
2014-Oct-31 09:49 082 16.7
2014-Oct-31 09:39 082 16.7
2014-Oct-31 09:29 351 16.7
2014-Oct-31 09:19 351 16.1
2014-Oct-31 09:09 351 15.6
2014-Oct-31 08:59 351 15.0
2014-Oct-31 08:49 351 13.9
2014-Oct-31 08:39 351 14.4
2014-Oct-31 08:29 351 13.9
2014-Oct-31 08:19 351 14.4
2014-Oct-31 08:09 351 13.9
2014-Oct-31 07:59 317 12.8
2014-Oct-31 07:49 317 12.2
2014-Oct-31 07:39 348 11.7
2014-Oct-31 07:29 348 11.1
2014-Oct-31 07:19 317 11.1
2014-Oct-31 07:09 317 11.1
2014-Oct-31 06:59 317 11.1
2014-Oct-31 06:49 317 11.1
2014-Oct-31 06:39 317 11.1
2014-Oct-31 06:29 317 11.1
2014-Oct-31 06:19 319 11.1
2014-Oct-31 06:09 319 11.1
2014-Oct-31 05:59 319 11.7
2014-Oct-31 05:49 019 11.7
2014-Oct-31 05:39 019 11.1
2014-Oct-31 05:29 019 11.1
2014-Oct-31 05:19 019 11.1
2014-Oct-31 05:09 019 11.1
2014-Oct-31 04:59 019 11.1
2014-Oct-31 04:49 019 11.1
2014-Oct-31 04:39 019 10.6
2014-Oct-31 04:29 019 10.6
2014-Oct-31 04:19 019 10.6
2014-Oct-31 04:09 019 10.6
2014-Oct-31 03:59 020 11.1
2014-Oct-31 03:49 020 11.1
2014-Oct-31 03:39 020 11.1
2014-Oct-31 03:29 020 11.7
2014-Oct-31 03:19 020 11.7
2014-Oct-31 03:09 020 11.7
2014-Oct-31 02:59 020 11.7
2014-Oct-31 02:49 020 11.7
2014-Oct-31 02:39 020 11.7
2014-Oct-31 02:29 020 11.7
2014-Oct-31 02:19 020 11.1
2014-Oct-31 01:59 020 11.1
2014-Oct-31 01:49 020 11.1
2014-Oct-31 01:39 020 11.1
2014-Oct-31 01:29 020 11.1
2014-Oct-31 01:19 020 11.7
2014-Oct-31 01:09 020 11.7
2014-Oct-31 00:59 020 11.7
2014-Oct-31 00:49 020 12.2
2014-Oct-31 00:39 020 12.2
2014-Oct-31 00:29 020 12.8
2014-Oct-31 00:19 020 12.8
2014-Oct-31 00:10 020 12.8
2014-Oct-30 23:59 020 12.8
2014-Oct-30 23:49 020 0 gusting 2 12.8
2014-Oct-30 23:39 355 12.8
2014-Oct-30 23:29 355 12.8
2014-Oct-30 23:19 355 12.8
2014-Oct-30 23:09 355 12.8
2014-Oct-30 22:59 182 12.2
2014-Oct-30 22:49 182 12.2
2014-Oct-30 22:39 182 12.8
2014-Oct-30 22:29 182 12.8
2014-Oct-30 22:19 182 12.8
2014-Oct-30 22:09 182 12.8
2014-Oct-30 21:59 182 12.8
2014-Oct-30 21:49 182 12.8
2014-Oct-30 21:39 182 12.8
2014-Oct-30 21:29 182 13.3
2014-Oct-30 21:19 182 13.3
2014-Oct-30 21:09 182 13.3
2014-Oct-30 20:59 182 13.9
2014-Oct-30 20:49 182 13.9
2014-Oct-30 20:39 182 14.4
2014-Oct-30 20:29 182 14.4
2014-Oct-30 20:19 182 14.4
2014-Oct-30 20:09 182 15.0
2014-Oct-30 19:59 182 15.0
2014-Oct-30 19:49 182 15.6
2014-Oct-30 19:39 182 15.6
2014-Oct-30 19:29 182 15.6
2014-Oct-30 19:19 182 15.6
2014-Oct-30 19:09 182 15.6
2014-Oct-30 18:59 182 16.1
2014-Oct-30 18:49 182 16.1
2014-Oct-30 18:39 182 16.1
2014-Oct-30 18:29 182 16.1
2014-Oct-30 18:19 182 16.7
2014-Oct-30 18:09 182 17.2
2014-Oct-30 17:59 182 17.8
2014-Oct-30 17:49 182 18.3
2014-Oct-30 17:39 182 18.3
2014-Oct-30 17:29 182 18.9
2014-Oct-30 17:19 182 19.4
2014-Oct-30 17:09 182 20.0
2014-Oct-30 16:59 182 20.6
2014-Oct-30 16:49 182 21.1
2014-Oct-30 16:39 182 21.1
2014-Oct-30 16:19 182 21.1
2014-Oct-30 16:09 182 21.1
2014-Oct-30 15:59 182 21.1
2014-Oct-30 15:49 184 21.7
2014-Oct-30 15:39 184 21.7
2014-Oct-30 15:29 177 21.7
2014-Oct-30 15:19 171 22.2
2014-Oct-30 15:09 174 0 gusting 2 21.7
2014-Oct-30 14:59 196 22.2
2014-Oct-30 14:49 142 21.7
2014-Oct-30 14:39 179 0 gusting 5 21.7
2014-Oct-30 14:29 188 0 gusting 6 22.2
2014-Oct-30 14:19 192 21.7
2014-Oct-30 14:09 182 0 gusting 5 21.7
2014-Oct-30 13:59 168 0 gusting 5 22.2
2014-Oct-30 13:49 178 0 gusting 4 22.2
2014-Oct-30 13:39 195 0 gusting 2 22.2
2014-Oct-30 13:29 190 0 gusting 3 22.2
2014-Oct-30 13:19 185 22.2
2014-Oct-30 13:09 188 0 gusting 2 22.2
2014-Oct-30 12:59 182 22.2
2014-Oct-30 12:49 235 0 gusting 3 22.2
2014-Oct-30 12:39 196 0 gusting 4 22.2
2014-Oct-30 12:29 190 21.7
2014-Oct-30 12:19 202 0 gusting 5 21.7
2014-Oct-30 12:09 190 0 gusting 5 21.7
2014-Oct-30 11:59 182 0 gusting 4 21.7
2014-Oct-30 11:49 218 21.7
2014-Oct-30 11:39 203 21.1
2014-Oct-30 11:29 198 0 gusting 2 21.7
2014-Oct-30 11:19 184 21.1
2014-Oct-30 11:09 137 20.6
2014-Oct-30 10:59 137 20.0
2014-Oct-30 10:49 054 20.0
2014-Oct-30 10:39 054 19.4
2014-Oct-30 10:29 053 19.4
2014-Oct-30 10:19 355 19.4
2014-Oct-30 10:09 355 18.9
2014-Oct-30 09:59 355 18.3
2014-Oct-30 09:49 355 18.3
2014-Oct-30 09:39 355 17.8
2014-Oct-30 09:29 360 16.7
2014-Oct-30 09:19 360 16.7
2014-Oct-30 09:09 360 16.7
2014-Oct-30 08:59 360 16.1
2014-Oct-30 08:49 360 15.0
2014-Oct-30 08:39 360 14.4
2014-Oct-30 08:29 360 13.3
2014-Oct-30 08:19 360 13.3
2014-Oct-30 08:09 360 12.8
2014-Oct-30 07:59 360 12.8
2014-Oct-30 07:49 360 12.2
2014-Oct-30 07:39 360 11.7
2014-Oct-30 07:29 360 11.1
2014-Oct-30 07:19 360 11.1
2014-Oct-30 07:09 019 10.6
2014-Oct-30 06:59 019 10.6
2014-Oct-30 06:49 019 10.6
2014-Oct-30 06:39 019 10.6
2014-Oct-30 06:29 019 10.6
2014-Oct-30 06:19 019 10.6
2014-Oct-30 06:09 019 10.6
2014-Oct-30 05:59 019 11.1
2014-Oct-30 05:49 019 11.1
2014-Oct-30 05:39 019 11.1
2014-Oct-30 05:29 019 11.1
2014-Oct-30 05:19 019 11.1
2014-Oct-30 05:09 019 10.6
2014-Oct-30 04:59 019 10.0
2014-Oct-30 04:49 019 10.0
2014-Oct-30 04:39 019 10.0
2014-Oct-30 04:29 019 10.0
2014-Oct-30 04:19 019 10.0
2014-Oct-30 04:09 019 10.0
2014-Oct-30 03:59 019 10.0
2014-Oct-30 03:49 019 10.0
2014-Oct-30 03:39 019 10.0
2014-Oct-30 03:29 019 10.6
2014-Oct-30 03:19 019 10.6
2014-Oct-30 03:09 019 10.6
2014-Oct-30 02:59 019 10.6
2014-Oct-30 02:49 019 10.6
2014-Oct-30 02:39 019 10.6
2014-Oct-30 02:29 019 10.6
2014-Oct-30 02:19 019 10.6
2014-Oct-30 02:09 019 10.6
2014-Oct-30 01:59 019 11.1
2014-Oct-30 01:49 019 11.1
2014-Oct-30 01:39 019 11.1
2014-Oct-30 01:29 019 11.7
2014-Oct-30 01:19 019 12.2
2014-Oct-30 01:09 019 12.2
2014-Oct-30 00:59 019 12.2
2014-Oct-30 00:49 019 12.2
2014-Oct-30 00:39 019 12.2
2014-Oct-30 00:29 038 12.8
2014-Oct-30 00:19 038 12.8
2014-Oct-30 00:09 073 12.8
2014-Oct-29 23:59 073 12.2
2014-Oct-29 23:49 073 12.2
2014-Oct-29 23:39 073 12.2
2014-Oct-29 23:29 073 12.2
2014-Oct-29 23:19 073 12.2
2014-Oct-29 23:09 073 12.2
2014-Oct-29 22:59 073 12.2
2014-Oct-29 22:49 073 12.2
2014-Oct-29 22:39 073 11.7
2014-Oct-29 22:29 073 12.2
2014-Oct-29 22:19 073 12.2
2014-Oct-29 22:09 073 12.8
2014-Oct-29 21:59 346 12.8
2014-Oct-29 21:49 347 0 gusting 2 12.8
2014-Oct-29 21:39 315 12.8
2014-Oct-29 21:29 315 12.8
2014-Oct-29 21:19 343 0 gusting 3 13.3
2014-Oct-29 21:09 188 12.8
2014-Oct-29 20:59 188 13.3
2014-Oct-29 20:49 187 13.9
2014-Oct-29 20:39 187 13.9
2014-Oct-29 20:29 187 14.4
2014-Oct-29 20:19 187 14.4
2014-Oct-29 20:09 188 14.4
2014-Oct-29 19:59 188 14.4
2014-Oct-29 19:49 187 14.4
2014-Oct-29 19:39 188 15.0
2014-Oct-29 19:29 188 15.0
2014-Oct-29 19:19 188 15.0
2014-Oct-29 19:09 188 15.0
2014-Oct-29 18:59 188 15.6
2014-Oct-29 18:49 187 15.6
2014-Oct-29 18:39 187 15.6
2014-Oct-29 18:29 187 15.6
2014-Oct-29 18:19 187 16.1
2014-Oct-29 18:09 187 16.1
2014-Oct-29 17:59 187 16.7
2014-Oct-29 17:49 187 17.2
2014-Oct-29 17:39 187 17.2
2014-Oct-29 17:29 187 17.8
2014-Oct-29 17:19 187 18.3
2014-Oct-29 17:09 187 18.9